Location: Baumgartsau
(48.4586°N, 14.0864°E)
Time: 13:13:38
(UTC+00:00)

BREEZE M DEB (TANK) - Pass Details

Date: 11 August 2020
Orbit: 304 x 11869 km, 49.5° (Epoch: 20 September)

Event Time Altitude Azimuth Distance (km) Brightness Sun altitude
Exits shadow 02:22:49 14° 224° (SW) 9,751 7.9 -13.2°
Maximum altitude 02:48:18 63° 154° (SSE) 2,378 5.4 -10.0°
Drops below altitude 10° 02:55:22 10° 74° (ENE) 2,957 7.3 -9.0°
Sets 02:56:59 0° 71° (ENE) 3,509 8.2 -8.8°
